Location: Unspecified
(50.7693°N, 0.0000°E)
Time: 21:58:40
(UTC+00:00)

Vanguard 2 - Pass Details

Date: 21 June 2019
Orbit: 553 x 2938 km, 32.9° (Epoch: 14 July)

Event Time Altitude Azimuth Distance (km) Brightness Sun altitude
Rises 11:48:08 0° 249° (WSW) 4,069 11.3 62.5°
Reaches altitude 10° 11:51:08 10° 236° (SW) 3,420 11.2 62.6°
Maximum altitude 11:58:08 25° 185° (S) 3,073 11.6 62.7°
Drops below altitude 10° 12:08:00 10° 138° (SE) 4,952 12.1 62.6°
Sets 12:13:32 0° 128° (SE) 6,314 12.4 62.6°
